Hourly Weather Centralina

Today, 12 June, Saturday

Time Temperature Precipitation Wind Pressure Humidity
00:00 +20°C° 0 mm 1 mps 719 mmHg 86%
01:00 +20°C° 0 mm 1 mps 718 mmHg 87%
02:00 +19°C° 0 mm 1 mps 718 mmHg 89%
03:00 +18°C° 0 mm 2 mps 718 mmHg 91%
04:00 +19°C° 0 mm 1 mps 718 mmHg 92%
05:00 +18°C° 0 mm 1 mps 718 mmHg 93%
06:00 +18°C° 0 mm 1 mps 718 mmHg 94%
07:00 +20°C° 0 mm 1 mps 718 mmHg 87%
08:00 +21°C° 0 mm 1 mps 719 mmHg 79%
09:00 +23°C° 0 mm 1 mps 720 mmHg 71%
10:00 +25°C° 0 mm 1 mps 719 mmHg 63%
11:00 +27°C° 0 mm 2 mps 719 mmHg 54%
12:00 +29°C° 0 mm 2 mps 719 mmHg 46%
13:00 +29°C° 0 mm 2 mps 718 mmHg 42%
14:00 +30°C° 0 mm 2 mps 718 mmHg 38%
15:00 +31°C° 0 mm 2 mps 717 mmHg 34%
16:00 +29°C° 0 mm 2 mps 717 mmHg 38%
17:00 +27°C° 0 mm 2 mps 717 mmHg 42%
18:00 +25°C° 0 mm 3 mps 716 mmHg 46%
19:00 +24°C° 0 mm 2 mps 717 mmHg 49%
20:00 +23°C° 0 mm 2 mps 718 mmHg 53%
21:00 +20°C° 0 mm 2 mps 718 mmHg 56%
22:00 +20°C° 0 mm 2 mps 718 mmHg 58%
23:00 +20°C° 0 mm 2 mps 718 mmHg 59%

Tomorrow, 13 June, Sunday

Time Temperature Precipitation Wind Pressure Humidity
00:00 +19°C° 0 mm 2 mps 718 mmHg 61%
01:00 +19°C° 0 mm 2 mps 718 mmHg 63%
02:00 +18°C° 0 mm 2 mps 718 mmHg 65%
03:00 +18°C° 0 mm 2 mps 717 mmHg 67%
04:00 +17°C° 0 mm 2 mps 717 mmHg 68%
05:00 +17°C° 0 mm 2 mps 718 mmHg 68%
06:00 +16°C° 0 mm 1 mps 718 mmHg 69%
07:00 +19°C° 0 mm 2 mps 718 mmHg 60%
08:00 +21°C° 0 mm 2 mps 719 mmHg 52%
09:00 +24°C° 0 mm 2 mps 720 mmHg 44%
10:00 +27°C° 0 mm 2 mps 720 mmHg 39%
11:00 +29°C° 0 mm 2 mps 720 mmHg 34%
12:00 +31°C° 0 mm 2 mps 720 mmHg 29%
13:00 +32°C° 0 mm 2 mps 719 mmHg 28%
14:00 +32°C° 0 mm 2 mps 718 mmHg 27%
15:00 +34°C° 0 mm 2 mps 718 mmHg 26%
16:00 +31°C° 0 mm 1 mps 717 mmHg 30%
17:00 +29°C° 0 mm 1 mps 717 mmHg 34%
18:00 +27°C° 0 mm 1 mps 717 mmHg 38%
19:00 +26°C° 0 mm 2 mps 717 mmHg 41%
20:00 +25°C° 0 mm 2 mps 718 mmHg 43%
21:00 +24°C° 0 mm 3 mps 718 mmHg 45%
22:00 +22°C° 0 mm 3 mps 718 mmHg 47%
23:00 +21°C° 0 mm 2 mps 718 mmHg 48%

Day after tomorrow, 14 June, Monday

Time Temperature Precipitation Wind Pressure Humidity
00:00 +21°C° 0 mm 2 mps 718 mmHg 50%
01:00 +20°C° 0 mm 2 mps 718 mmHg 51%
02:00 +19°C° 0 mm 2 mps 718 mmHg 53%
03:00 +19°C° 0 mm 2 mps 717 mmHg 54%
04:00 +19°C° 0 mm 2 mps 718 mmHg 53%
05:00 +20°C° 0 mm 2 mps 718 mmHg 52%
06:00 +20°C° 0 mm 2 mps 718 mmHg 51%
07:00 +22°C° 0 mm 3 mps 719 mmHg 47%
08:00 +23°C° 0 mm 5 mps 719 mmHg 44%
09:00 +26°C° 0 mm 6 mps 720 mmHg 41%
10:00 +28°C° 0 mm 6 mps 720 mmHg 39%
11:00 +30°C° 0 mm 5 mps 720 mmHg 36%
12:00 +33°C° 0 mm 5 mps 720 mmHg 34%
13:00 +33°C° 0 mm 4 mps 719 mmHg 32%
14:00 +34°C° 0 mm 4 mps 718 mmHg 31%
15:00 +35°C° 0 mm 3 mps 718 mmHg 30%
16:00 +31°C° 0.1 mm 3 mps 717 mmHg 37%
17:00 +29°C° 0.1 mm 2 mps 717 mmHg 44%
18:00 +27°C° 0.1 mm 2 mps 717 mmHg 50%
19:00 +26°C° 0.2 mm 2 mps 717 mmHg 58%
20:00 +24°C° 0.2 mm 2 mps 718 mmHg 65%
21:00 +22°C° 0.2 mm 3 mps 718 mmHg 73%
22:00 +23°C° 0.3 mm 2 mps 718 mmHg 75%
23:00 +22°C° 0.3 mm 1 mps 718 mmHg 78%

15 June, Tuesday

Time Temperature Precipitation Wind Pressure Humidity
00:00 +22°C° 0.3 mm 1 mps 719 mmHg 80%
01:00 +21°C° 0.1 mm 1 mps 718 mmHg 80%
02:00 +21°C° 0.1 mm 1 mps 718 mmHg 81%
03:00 +20°C° 0.1 mm 1 mps 718 mmHg 81%
04:00 +21°C° 0 mm 1 mps 718 mmHg 82%
05:00 +21°C° 0 mm 1 mps 718 mmHg 82%
06:00 +21°C° 0 mm 1 mps 718 mmHg 83%
07:00 +22°C° 0 mm 1 mps 719 mmHg 78%
08:00 +23°C° 0 mm 1 mps 719 mmHg 72%
09:00 +25°C° 0 mm 1 mps 720 mmHg 67%
10:00 +27°C° 0 mm 1 mps 720 mmHg 58%
11:00 +29°C° 0 mm 1 mps 720 mmHg 48%
12:00 +32°C° 0 mm 1 mps 719 mmHg 39%
13:00 +32°C° 0 mm 1 mps 719 mmHg 35%
14:00 +34°C° 0 mm 2 mps 718 mmHg 32%
15:00 +34°C° 0 mm 2 mps 717 mmHg 28%
16:00 +31°C° 0 mm 2 mps 717 mmHg 31%
17:00 +30°C° 0 mm 2 mps 717 mmHg 34%
18:00 +28°C° 0 mm 2 mps 717 mmHg 36%
19:00 +27°C° 0 mm 2 mps 717 mmHg 37%
20:00 +26°C° 0 mm 2 mps 717 mmHg 38%
21:00 +25°C° 0 mm 2 mps 718 mmHg 39%
22:00 +24°C° 0 mm 2 mps 718 mmHg 41%
23:00 +23°C° 0 mm 1 mps 718 mmHg 44%

16 June, Wednesday

Time Temperature Precipitation Wind Pressure Humidity
00:00 +22°C° 0 mm 1 mps 718 mmHg 46%
01:00 +21°C° 0 mm 1 mps 717 mmHg 49%
02:00 +21°C° 0 mm 1 mps 717 mmHg 51%
03:00 +20°C° 0 mm 1 mps 717 mmHg 54%
04:00 +20°C° 0 mm 1 mps 717 mmHg 57%
05:00 +19°C° 0 mm 1 mps 717 mmHg 59%
06:00 +19°C° 0 mm 1 mps 717 mmHg 61%
07:00 +21°C° 0 mm 1 mps 718 mmHg 55%
08:00 +23°C° 0 mm 1 mps 719 mmHg 48%
09:00 +25°C° 0 mm 1 mps 719 mmHg 42%
10:00 +27°C° 0 mm 1 mps 719 mmHg 37%
11:00 +30°C° 0 mm 1 mps 719 mmHg 32%
12:00 +32°C° 0 mm 1 mps 719 mmHg 27%
13:00 +32°C° 0 mm 1 mps 718 mmHg 25%
14:00 +34°C° 0 mm 2 mps 717 mmHg 23%
15:00 +34°C° 0 mm 2 mps 717 mmHg 21%
16:00 +31°C° 0 mm 2 mps 717 mmHg 24%
17:00 +29°C° 0 mm 2 mps 717 mmHg 27%
18:00 +27°C° 0 mm 2 mps 717 mmHg 30%
19:00 +25°C° 0 mm 2 mps 717 mmHg 33%
20:00 +24°C° 0 mm 2 mps 717 mmHg 35%
21:00 +23°C° 0 mm 2 mps 718 mmHg 38%
22:00 +21°C° 0 mm 2 mps 718 mmHg 40%
23:00 +20°C° 0 mm 2 mps 718 mmHg 42%

17 June, Thursday

Time Temperature Precipitation Wind Pressure Humidity
00:00 +20°C° 0 mm 2 mps 718 mmHg 43%
01:00 +19°C° 0 mm 2 mps 718 mmHg 46%
02:00 +19°C° 0 mm 2 mps 717 mmHg 48%
03:00 +18°C° 0 mm 2 mps 717 mmHg 50%
04:00 +18°C° 0 mm 2 mps 717 mmHg 51%
05:00 +17°C° 0 mm 2 mps 717 mmHg 52%
06:00 +17°C° 0 mm 2 mps 717 mmHg 54%
07:00 +19°C° 0 mm 2 mps 718 mmHg 48%
08:00 +23°C° 0 mm 2 mps 719 mmHg 42%
09:00 +25°C° 0 mm 2 mps 719 mmHg 35%
10:00 +28°C° 0 mm 2 mps 719 mmHg 30%
11:00 +30°C° 0 mm 3 mps 719 mmHg 25%
12:00 +34°C° 0 mm 3 mps 719 mmHg 20%
13:00 +34°C° 0 mm 2 mps 718 mmHg 19%
14:00 +35°C° 0 mm 2 mps 718 mmHg 17%
15:00 +34°C° 0 mm 1 mps 717 mmHg 16%
16:00 +32°C° 0 mm 1 mps 717 mmHg 18%
17:00 +30°C° 0 mm 1 mps 717 mmHg 21%
18:00 +27°C° 0 mm 1 mps 717 mmHg 24%
19:00 +26°C° 0 mm 1 mps 717 mmHg 26%
20:00 +25°C° 0 mm 1 mps 717 mmHg 27%
21:00 +24°C° 0 mm 1 mps 718 mmHg 29%
22:00 +24°C° 0 mm 1 mps 718 mmHg 31%
23:00 +23°C° 0 mm 1 mps 718 mmHg 32%
Show more

We Need Your Consent

Meteoprog and our Service Providers may store and access personal data such as cookies, device identifiers or other similar technologies on your device and process such data to personalise content and ads, as well as provide social media features and to analyse the traffic.

  • Store and/or access information on your device

    Cookies, device identifiers or other information can be stored or accessed on your device for the purposes indicated above.

  • Personalised ads and content, ad and content measurement, audience insights, and products development

    Ads and content can be personalised based on a profile. More data can be added to better personalise ads and content. Ad and content performance can be measured. Insights about the audience who saw the ads and content can be derived. Such data can be used to develop or improve user’s experience, systems and software.

By clicking ‘I Agree’ you will allow the use of indicated cookies, device identifiers, web beacons or other similar technologies. Your settings can be changed in the browser on your device.

For certain purposes, legitimate interests may be relied on, rather than consent. You can read more about this in our Privacy and Cookie Policy.